When you browse on this site, cookies collect data to enhance your experience and personalize the content and advertising you see.
Visit our Privacy Policy to learn more. By continuing to use the site, you agree to this use of cookies and data.
  • In Germany
  • List of Countries
  • For 7 days
  • Water Temperature
  • Satellite Maps
  • Weather Map
  • Weather Widgets
  • user-avatar
    Login

    Hourly Weather Perth

    Today, 23 February, Saturday

    Time Temperature Precipitation Wind Pressure Humidity
    00:00 +20°C° 0 mm 1 mps 759 mmHg 73%
    01:00 +20°C° 0 mm 1 mps 759 mmHg 73%
    02:00 +20°C° 0 mm 1 mps 759 mmHg 72%
    03:00 +20°C° 0 mm 1 mps 759 mmHg 72%
    04:00 +20°C° 0 mm 1 mps 759 mmHg 71%
    05:00 +20°C° 0 mm 1 mps 759 mmHg 70%
    06:00 +21°C° 0 mm 1 mps 759 mmHg 65%
    07:00 +20°C° 0 mm 0 mps 759 mmHg 61%
    08:00 +24°C° 0 mm 1 mps 760 mmHg 57%
    09:00 +26°C° 0 mm 1 mps 760 mmHg 53%
    10:00 +27°C° 0 mm 2 mps 760 mmHg 49%
    11:00 +29°C° 0 mm 3 mps 760 mmHg 45%
    12:00 +29°C° 0 mm 3 mps 759 mmHg 45%
    13:00 +29°C° 0 mm 4 mps 759 mmHg 44%
    14:00 +29°C° 0 mm 4 mps 759 mmHg 45%
    15:00 +29°C° 0 mm 4 mps 759 mmHg 47%
    16:00 +28°C° 0 mm 4 mps 759 mmHg 49%
    17:00 +28°C° 0 mm 4 mps 759 mmHg 51%
    18:00 +26°C° 0 mm 4 mps 760 mmHg 59%
    19:00 +24°C° 0 mm 3 mps 760 mmHg 67%
    20:00 +22°C° 0 mm 3 mps 760 mmHg 76%
    21:00 +21°C° 0 mm 3 mps 761 mmHg 79%
    22:00 +21°C° 0 mm 3 mps 761 mmHg 82%
    23:00 +20°C° 0 mm 2 mps 762 mmHg 85%

    Tomorrow, 24 February, Sunday

    Time Temperature Precipitation Wind Pressure Humidity
    00:00 +20°C° 0 mm 2 mps 762 mmHg 86%
    01:00 +20°C° 0 mm 2 mps 761 mmHg 88%
    02:00 +20°C° 0 mm 2 mps 761 mmHg 89%
    03:00 +19°C° 0 mm 2 mps 762 mmHg 90%
    04:00 +19°C° 0 mm 2 mps 762 mmHg 91%
    05:00 +19°C° 0 mm 3 mps 762 mmHg 91%
    06:00 +20°C° 0 mm 3 mps 762 mmHg 84%
    07:00 +21°C° 0 mm 3 mps 762 mmHg 76%
    08:00 +24°C° 0 mm 3 mps 763 mmHg 68%
    09:00 +26°C° 0 mm 3 mps 762 mmHg 59%
    10:00 +28°C° 0 mm 3 mps 762 mmHg 50%
    11:00 +31°C° 0 mm 2 mps 762 mmHg 41%
    12:00 +33°C° 0 mm 3 mps 762 mmHg 39%
    13:00 +34°C° 0 mm 4 mps 761 mmHg 37%
    14:00 +35°C° 0 mm 4 mps 761 mmHg 36%
    15:00 +34°C° 0 mm 5 mps 761 mmHg 39%
    16:00 +32°C° 0 mm 5 mps 760 mmHg 42%
    17:00 +30°C° 0 mm 6 mps 760 mmHg 45%
    18:00 +28°C° 0 mm 6 mps 761 mmHg 50%
    19:00 +26°C° 0 mm 5 mps 761 mmHg 55%
    20:00 +25°C° 0 mm 5 mps 761 mmHg 60%
    21:00 +25°C° 0 mm 4 mps 762 mmHg 59%
    22:00 +25°C° 0 mm 4 mps 762 mmHg 59%
    23:00 +25°C° 0 mm 4 mps 762 mmHg 58%

    Day after tomorrow, 25 February, Monday

    Time Temperature Precipitation Wind Pressure Humidity
    00:00 +23°C° 0 mm 5 mps 762 mmHg 60%
    01:00 +23°C° 0 mm 6 mps 762 mmHg 63%
    02:00 +23°C° 0 mm 7 mps 762 mmHg 66%
    03:00 +22°C° 0 mm 7 mps 762 mmHg 66%
    04:00 +22°C° 0 mm 7 mps 762 mmHg 66%
    05:00 +21°C° 0 mm 7 mps 763 mmHg 66%
    06:00 +22°C° 0 mm 7 mps 763 mmHg 64%
    07:00 +23°C° 0 mm 7 mps 763 mmHg 62%
    08:00 +23°C° 0 mm 7 mps 763 mmHg 61%
    09:00 +27°C° 0 mm 6 mps 763 mmHg 53%
    10:00 +30°C° 0 mm 5 mps 763 mmHg 46%
    11:00 +33°C° 0 mm 5 mps 762 mmHg 39%
    12:00 +35°C° 0 mm 4 mps 762 mmHg 35%
    13:00 +37°C° 0 mm 3 mps 761 mmHg 31%
    14:00 +38°C° 0 mm 2 mps 760 mmHg 27%
    15:00 +38°C° 0 mm 3 mps 760 mmHg 29%
    16:00 +37°C° 0 mm 3 mps 759 mmHg 32%
    17:00 +36°C° 0 mm 4 mps 759 mmHg 34%
    18:00 +34°C° 0 mm 4 mps 759 mmHg 39%
    19:00 +30°C° 0 mm 4 mps 759 mmHg 44%
    20:00 +28°C° 0 mm 4 mps 759 mmHg 49%
    21:00 +28°C° 0 mm 4 mps 759 mmHg 49%
    22:00 +28°C° 0 mm 3 mps 759 mmHg 49%
    23:00 +27°C° 0 mm 3 mps 760 mmHg 49%

    26 February, Tuesday

    Time Temperature Precipitation Wind Pressure Humidity
    00:00 +27°C° 0 mm 3 mps 759 mmHg 52%
    01:00 +27°C° 0 mm 4 mps 759 mmHg 55%
    02:00 +27°C° 0 mm 4 mps 759 mmHg 57%
    03:00 +26°C° 0 mm 4 mps 758 mmHg 58%
    04:00 +26°C° 0 mm 4 mps 758 mmHg 59%
    05:00 +26°C° 0 mm 4 mps 758 mmHg 60%
    06:00 +26°C° 0 mm 4 mps 758 mmHg 57%
    07:00 +27°C° 0 mm 3 mps 758 mmHg 53%
    08:00 +28°C° 0 mm 3 mps 758 mmHg 50%
    09:00 +30°C° 0 mm 3 mps 758 mmHg 44%
    10:00 +34°C° 0 mm 3 mps 758 mmHg 38%
    11:00 +36°C° 0 mm 3 mps 758 mmHg 31%
    12:00 +36°C° 0 mm 4 mps 758 mmHg 32%
    13:00 +36°C° 0 mm 4 mps 757 mmHg 33%
    14:00 +36°C° 0 mm 5 mps 757 mmHg 34%
    15:00 +35°C° 0 mm 5 mps 757 mmHg 39%
    16:00 +33°C° 0 mm 5 mps 757 mmHg 43%
    17:00 +32°C° 0 mm 5 mps 757 mmHg 48%
    18:00 +29°C° 0 mm 4 mps 757 mmHg 57%
    19:00 +27°C° 0 mm 4 mps 758 mmHg 66%
    20:00 +23°C° 0 mm 4 mps 758 mmHg 75%
    21:00 +24°C° 0 mm 3 mps 758 mmHg 79%
    22:00 +22°C° 0 mm 3 mps 759 mmHg 82%
    23:00 +22°C° 0 mm 3 mps 759 mmHg 86%

    27 February, Wednesday

    Time Temperature Precipitation Wind Pressure Humidity
    00:00 +21°C° 0 mm 2 mps 758 mmHg 86%
    01:00 +21°C° 0 mm 2 mps 758 mmHg 87%
    02:00 +22°C° 0 mm 1 mps 758 mmHg 87%
    03:00 +22°C° 0 mm 1 mps 758 mmHg 86%
    04:00 +22°C° 0 mm 1 mps 758 mmHg 86%
    05:00 +21°C° 0 mm 1 mps 758 mmHg 86%
    06:00 +23°C° 0 mm 1 mps 758 mmHg 80%
    07:00 +24°C° 0 mm 1 mps 758 mmHg 74%
    08:00 +25°C° 0 mm 2 mps 759 mmHg 68%
    09:00 +28°C° 0 mm 2 mps 758 mmHg 58%
    10:00 +31°C° 0 mm 2 mps 758 mmHg 49%
    11:00 +34°C° 0 mm 3 mps 758 mmHg 40%
    12:00 +35°C° 0 mm 3 mps 758 mmHg 39%
    13:00 +35°C° 0 mm 4 mps 757 mmHg 37%
    14:00 +36°C° 0 mm 5 mps 756 mmHg 36%
    15:00 +34°C° 0 mm 5 mps 756 mmHg 40%
    16:00 +33°C° 0 mm 5 mps 756 mmHg 43%
    17:00 +32°C° 0 mm 5 mps 755 mmHg 46%
    18:00 +30°C° 0 mm 4 mps 756 mmHg 52%
    19:00 +28°C° 0 mm 4 mps 756 mmHg 58%
    20:00 +26°C° 0 mm 3 mps 757 mmHg 63%
    21:00 +26°C° 0 mm 3 mps 757 mmHg 63%
    22:00 +26°C° 0 mm 3 mps 757 mmHg 63%
    23:00 +25°C° 0 mm 3 mps 757 mmHg 63%

    28 February, Thursday

    Time Temperature Precipitation Wind Pressure Humidity
    00:00 +26°C° 0 mm 3 mps 757 mmHg 62%
    01:00 +26°C° 0 mm 3 mps 757 mmHg 61%
    02:00 +26°C° 0 mm 3 mps 757 mmHg 59%
    03:00 +25°C° 0 mm 3 mps 757 mmHg 63%
    04:00 +25°C° 0 mm 3 mps 757 mmHg 66%
    05:00 +24°C° 0 mm 3 mps 757 mmHg 70%
    06:00 +25°C° 0 mm 3 mps 757 mmHg 67%
    07:00 +26°C° 0 mm 3 mps 757 mmHg 64%
    08:00 +26°C° 0 mm 3 mps 758 mmHg 61%
    09:00 +28°C° 0 mm 3 mps 757 mmHg 54%
    10:00 +30°C° 0 mm 3 mps 757 mmHg 48%
    11:00 +33°C° 0 mm 4 mps 757 mmHg 42%
    12:00 +33°C° 0 mm 5 mps 757 mmHg 40%
    13:00 +33°C° 0 mm 6 mps 756 mmHg 39%
    14:00 +33°C° 0 mm 7 mps 756 mmHg 37%
    15:00 +32°C° 0 mm 6 mps 756 mmHg 43%
    16:00 +29°C° 0 mm 6 mps 756 mmHg 48%
    17:00 +28°C° 0 mm 6 mps 756 mmHg 54%
    18:00 +27°C° 0 mm 6 mps 757 mmHg 62%
    19:00 +25°C° 0 mm 5 mps 757 mmHg 71%
    20:00 +22°C° 0 mm 4 mps 758 mmHg 80%
    21:00 +22°C° 0 mm 4 mps 758 mmHg 82%
    22:00 +21°C° 0 mm 4 mps 758 mmHg 85%
    23:00 +21°C° 0 mm 3 mps 758 mmHg 87%
    Show more